Year,Month,Day,Hour,Minute,Value (Times are PST for temperature in C)
2012,07,19,00,00,15.70
2012,07,19,00,01,15.70
2012,07,19,00,02,15.70
2012,07,19,00,03,15.70
2012,07,19,00,04,15.70
2012,07,19,00,05,15.70
2012,07,19,00,06,15.60
2012,07,19,00,07,15.60
2012,07,19,00,08,15.60
2012,07,19,00,09,15.60
2012,07,19,00,10,15.60
2012,07,19,00,11,15.60
2012,07,19,00,12,15.50
2012,07,19,00,13,15.50
2012,07,19,00,14,15.50
2012,07,19,00,15,15.50
2012,07,19,00,16,15.40
2012,07,19,00,17,15.40
2012,07,19,00,18,15.40
2012,07,19,00,19,15.40
2012,07,19,00,20,15.40
2012,07,19,00,21,15.40
2012,07,19,00,22,15.40
2012,07,19,00,23,15.40
2012,07,19,00,24,15.40
2012,07,19,00,25,15.40
2012,07,19,00,26,15.40
2012,07,19,00,27,15.40
2012,07,19,00,28,15.40
2012,07,19,00,29,15.40
2012,07,19,00,30,15.40
2012,07,19,00,31,15.40
2012,07,19,00,32,15.40
2012,07,19,00,33,15.30
2012,07,19,00,34,15.30
2012,07,19,00,35,15.30
2012,07,19,00,36,15.30
2012,07,19,00,37,15.30
2012,07,19,00,38,15.20
2012,07,19,00,39,15.20
2012,07,19,00,40,15.20
2012,07,19,00,41,15.20
2012,07,19,00,42,15.20
2012,07,19,00,43,15.20
2012,07,19,00,44,15.20
2012,07,19,00,45,15.20
2012,07,19,00,46,15.20
2012,07,19,00,47,15.20
2012,07,19,00,48,15.10
2012,07,19,00,49,15.10
2012,07,19,00,50,15.10
2012,07,19,00,51,15.10
2012,07,19,00,52,15.10
2012,07,19,00,53,15.10
2012,07,19,00,54,15.10
2012,07,19,00,55,15.10
2012,07,19,00,56,15.10
2012,07,19,00,57,15.10
2012,07,19,00,58,15.10
2012,07,19,00,59,15.10
2012,07,19,01,00,15.10
2012,07,19,01,01,15.10
2012,07,19,01,02,15.10
2012,07,19,01,03,15.10
2012,07,19,01,04,15.10
2012,07,19,01,05,15.10
2012,07,19,01,06,15.10
2012,07,19,01,07,15.10
2012,07,19,01,08,15.10
2012,07,19,01,09,15.00
2012,07,19,01,10,15.00
2012,07,19,01,11,15.00
2012,07,19,01,12,15.00
2012,07,19,01,13,15.00
2012,07,19,01,14,14.90
2012,07,19,01,15,14.90
2012,07,19,01,16,14.90
2012,07,19,01,17,14.90
2012,07,19,01,18,14.90
2012,07,19,01,19,14.90
2012,07,19,01,20,14.90
2012,07,19,01,21,14.90
2012,07,19,01,22,14.80
2012,07,19,01,23,14.80
2012,07,19,01,24,14.80
2012,07,19,01,25,14.80
2012,07,19,01,26,14.80
2012,07,19,01,27,14.80
2012,07,19,01,28,14.80
2012,07,19,01,29,14.80
2012,07,19,01,30,14.70
2012,07,19,01,31,14.70
2012,07,19,01,32,14.70
2012,07,19,01,33,14.70
2012,07,19,01,34,14.70
2012,07,19,01,35,14.70
2012,07,19,01,36,14.70
2012,07,19,01,37,14.70
2012,07,19,01,38,14.70
2012,07,19,01,39,14.70
2012,07,19,01,40,14.70
2012,07,19,01,41,14.60
2012,07,19,01,42,14.60
2012,07,19,01,43,14.60
2012,07,19,01,44,14.60
2012,07,19,01,45,14.60
2012,07,19,01,46,14.60
2012,07,19,01,47,14.60
2012,07,19,01,48,14.60
2012,07,19,01,49,14.60
2012,07,19,01,50,14.60
2012,07,19,01,51,14.60
2012,07,19,01,52,14.50
2012,07,19,01,53,14.50
2012,07,19,01,54,14.50
2012,07,19,01,55,14.50
2012,07,19,01,56,14.50
2012,07,19,01,57,14.50
2012,07,19,01,58,14.50
2012,07,19,01,59,14.50
2012,07,19,02,00,14.50
2012,07,19,02,01,14.40
2012,07,19,02,02,14.40
2012,07,19,02,03,14.40
2012,07,19,02,04,14.40
2012,07,19,02,05,14.40
2012,07,19,02,06,14.40
2012,07,19,02,07,14.40
2012,07,19,02,08,14.40
2012,07,19,02,09,14.40
2012,07,19,02,10,14.30
2012,07,19,02,11,14.30
2012,07,19,02,12,14.30
2012,07,19,02,13,14.30
2012,07,19,02,14,14.30
2012,07,19,02,15,14.30
2012,07,19,02,16,14.30
2012,07,19,02,17,14.30
2012,07,19,02,18,14.30
2012,07,19,02,19,14.30
2012,07,19,02,20,14.30
2012,07,19,02,21,14.30
2012,07,19,02,22,14.30
2012,07,19,02,23,14.20
2012,07,19,02,24,14.20
2012,07,19,02,25,14.20
2012,07,19,02,26,14.20
2012,07,19,02,27,14.20
2012,07,19,02,28,14.20
2012,07,19,02,29,14.20
2012,07,19,02,30,14.20
2012,07,19,02,31,14.20
2012,07,19,02,32,14.20
2012,07,19,02,33,14.20
2012,07,19,02,34,14.20
2012,07,19,02,35,14.20
2012,07,19,02,36,14.10
2012,07,19,02,37,14.10
2012,07,19,02,38,14.10
2012,07,19,02,39,14.10
2012,07,19,02,40,14.10
2012,07,19,02,41,14.10
2012,07,19,02,42,14.10
2012,07,19,02,43,14.10
2012,07,19,02,44,14.00
2012,07,19,02,45,14.00
2012,07,19,02,46,14.00
2012,07,19,02,47,14.00
2012,07,19,02,48,14.00
2012,07,19,02,49,13.90
2012,07,19,02,50,13.90
2012,07,19,02,51,13.90
2012,07,19,02,52,13.90
2012,07,19,02,53,13.90
2012,07,19,02,54,13.90
2012,07,19,02,55,13.90
2012,07,19,02,56,13.90
2012,07,19,02,57,13.90
2012,07,19,02,58,13.80
2012,07,19,02,59,13.80
2012,07,19,03,00,13.80
2012,07,19,03,01,13.80
2012,07,19,03,02,13.80
2012,07,19,03,03,13.80
2012,07,19,03,04,13.80
2012,07,19,03,05,13.80
2012,07,19,03,06,13.80
2012,07,19,03,07,13.80
2012,07,19,03,08,13.80
2012,07,19,03,09,13.80
2012,07,19,03,10,13.70
2012,07,19,03,11,13.70
2012,07,19,03,12,13.70
2012,07,19,03,13,13.70
2012,07,19,03,14,13.70
2012,07,19,03,15,13.70
2012,07,19,03,16,13.70
2012,07,19,03,17,13.70
2012,07,19,03,18,13.70
2012,07,19,03,19,13.70
2012,07,19,03,20,13.70
2012,07,19,03,21,13.70
2012,07,19,03,22,13.70
2012,07,19,03,23,13.70
2012,07,19,03,24,13.70
2012,07,19,03,25,13.60
2012,07,19,03,26,13.60
2012,07,19,03,27,13.60
2012,07,19,03,28,13.60
2012,07,19,03,29,13.60
2012,07,19,03,30,13.60
2012,07,19,03,31,13.60
2012,07,19,03,32,13.60
2012,07,19,03,33,13.60
2012,07,19,03,34,13.60
2012,07,19,03,35,13.60
2012,07,19,03,36,13.60
2012,07,19,03,37,13.60
2012,07,19,03,38,13.60
2012,07,19,03,39,13.60
2012,07,19,03,40,13.60
2012,07,19,03,41,13.60
2012,07,19,03,42,13.60
2012,07,19,03,43,13.60
2012,07,19,03,44,13.60
2012,07,19,03,45,13.60
2012,07,19,03,46,13.60
2012,07,19,03,47,13.50
2012,07,19,03,48,13.50
2012,07,19,03,49,13.50
2012,07,19,03,50,13.50
2012,07,19,03,51,13.50
2012,07,19,03,52,13.50
2012,07,19,03,53,13.50
2012,07,19,03,54,13.50
2012,07,19,03,55,13.40
2012,07,19,03,56,13.40
2012,07,19,03,57,13.40
2012,07,19,03,58,13.40
2012,07,19,03,59,13.40
2012,07,19,04,00,13.40
2012,07,19,04,01,13.40
2012,07,19,04,02,13.40
2012,07,19,04,03,13.40
2012,07,19,04,04,13.30
2012,07,19,04,05,13.30
2012,07,19,04,06,13.30
2012,07,19,04,07,13.30
2012,07,19,04,08,13.30
2012,07,19,04,09,13.30
2012,07,19,04,10,13.30
2012,07,19,04,11,13.30
2012,07,19,04,12,13.30
2012,07,19,04,13,13.30
2012,07,19,04,14,13.30
2012,07,19,04,15,13.30
2012,07,19,04,16,13.30
2012,07,19,04,17,13.20
2012,07,19,04,18,13.20
2012,07,19,04,19,13.20
2012,07,19,04,20,13.20
2012,07,19,04,21,13.20
2012,07,19,04,22,13.20
2012,07,19,04,23,13.20
2012,07,19,04,24,13.20
2012,07,19,04,25,13.20
2012,07,19,04,26,13.20
2012,07,19,04,27,13.10
2012,07,19,04,28,13.10
2012,07,19,04,29,13.10
2012,07,19,04,30,13.10
2012,07,19,04,31,13.10
2012,07,19,04,32,13.10
2012,07,19,04,33,13.10
2012,07,19,04,34,13.10
2012,07,19,04,35,13.10
2012,07,19,04,36,13.10
2012,07,19,04,37,13.10
2012,07,19,04,38,13.10
2012,07,19,04,39,13.10
2012,07,19,04,40,13.10
2012,07,19,04,41,13.10
2012,07,19,04,42,13.00
2012,07,19,04,43,13.00
2012,07,19,04,44,13.00
2012,07,19,04,45,13.00
2012,07,19,04,46,13.00
2012,07,19,04,47,13.00
2012,07,19,04,48,13.00
2012,07,19,04,49,13.00
2012,07,19,04,50,12.90
2012,07,19,04,51,12.90
2012,07,19,04,52,12.90
2012,07,19,04,53,12.90
2012,07,19,04,54,12.90
2012,07,19,04,55,12.90
2012,07,19,04,56,12.90
2012,07,19,04,57,12.90
2012,07,19,04,58,12.90
2012,07,19,04,59,12.90
2012,07,19,05,00,12.90
2012,07,19,05,01,12.90
2012,07,19,05,02,12.90
2012,07,19,05,03,12.90
2012,07,19,05,04,12.90
2012,07,19,05,05,12.90
2012,07,19,05,06,12.90
2012,07,19,05,07,12.90
2012,07,19,05,08,12.90
2012,07,19,05,09,12.90
2012,07,19,05,10,12.90
2012,07,19,05,11,12.90
2012,07,19,05,12,12.90
2012,07,19,05,13,12.90
2012,07,19,05,14,12.90
2012,07,19,05,15,12.90
2012,07,19,05,16,12.90
2012,07,19,05,17,12.90
2012,07,19,05,18,12.90
2012,07,19,05,19,12.90
2012,07,19,05,20,12.90
2012,07,19,05,21,12.90
2012,07,19,05,22,12.90
2012,07,19,05,23,12.90
2012,07,19,05,24,12.90
2012,07,19,05,25,12.90
2012,07,19,05,26,12.90
2012,07,19,05,27,12.90
2012,07,19,05,28,12.90
2012,07,19,05,29,12.90
2012,07,19,05,30,12.90
2012,07,19,05,31,12.90
2012,07,19,05,32,12.90
2012,07,19,05,33,12.90
2012,07,19,05,34,12.90
2012,07,19,05,35,12.90
2012,07,19,05,36,12.90
2012,07,19,05,37,12.90
2012,07,19,05,38,12.80
2012,07,19,05,39,12.80
2012,07,19,05,40,12.80
2012,07,19,05,41,12.90
2012,07,19,05,42,12.90
2012,07,19,05,43,12.80
2012,07,19,05,44,12.80
2012,07,19,05,45,12.80
2012,07,19,05,46,12.80
2012,07,19,05,47,12.80
2012,07,19,05,48,12.80
2012,07,19,05,49,12.80
2012,07,19,05,50,12.80
2012,07,19,05,51,12.80
2012,07,19,05,52,12.80
2012,07,19,05,53,12.80
2012,07,19,05,54,12.90
2012,07,19,05,55,12.90
2012,07,19,05,56,12.80
2012,07,19,05,57,12.90
2012,07,19,05,58,12.80
2012,07,19,05,59,12.80
2012,07,19,06,00,12.80
2012,07,19,06,01,12.80
2012,07,19,06,02,12.80
2012,07,19,06,03,12.80
2012,07,19,06,04,12.80
2012,07,19,06,05,12.80
2012,07,19,06,06,12.80
2012,07,19,06,07,12.80
2012,07,19,06,08,12.80
2012,07,19,06,09,12.80
2012,07,19,06,10,12.80
2012,07,19,06,11,12.80
2012,07,19,06,12,12.80
2012,07,19,06,13,12.80
2012,07,19,06,14,12.80
2012,07,19,06,15,12.90
2012,07,19,06,16,12.90
2012,07,19,06,17,12.90
2012,07,19,06,18,12.90
2012,07,19,06,19,12.90
2012,07,19,06,20,12.90
2012,07,19,06,21,12.90
2012,07,19,06,22,12.90
2012,07,19,06,23,12.90
2012,07,19,06,24,13.00
2012,07,19,06,25,13.00
2012,07,19,06,26,13.00
2012,07,19,06,27,13.00
2012,07,19,06,28,13.00
2012,07,19,06,29,13.10
2012,07,19,06,30,13.10
2012,07,19,06,31,13.10
2012,07,19,06,32,13.10
2012,07,19,06,33,13.10
2012,07,19,06,34,13.10
2012,07,19,06,35,13.20
2012,07,19,06,36,13.20
2012,07,19,06,37,13.20
2012,07,19,06,38,13.30
2012,07,19,06,39,13.30
2012,07,19,06,40,13.30
2012,07,19,06,41,13.30
2012,07,19,06,42,13.30
2012,07,19,06,43,13.40
2012,07,19,06,44,13.40
2012,07,19,06,45,13.40
2012,07,19,06,46,13.40
2012,07,19,06,47,13.50
2012,07,19,06,48,13.50
2012,07,19,06,49,13.60
2012,07,19,06,50,13.70
2012,07,19,06,51,13.70
2012,07,19,06,52,13.80
2012,07,19,06,53,13.80
2012,07,19,06,54,13.80
2012,07,19,06,55,13.90
2012,07,19,06,56,13.90
2012,07,19,06,57,14.00
2012,07,19,06,58,14.00
2012,07,19,06,59,14.10
2012,07,19,07,00,14.10
2012,07,19,07,01,14.20
2012,07,19,07,02,14.20
2012,07,19,07,03,14.30
2012,07,19,07,04,14.30
2012,07,19,07,05,14.40
2012,07,19,07,06,14.40
2012,07,19,07,07,14.50
2012,07,19,07,08,14.50
2012,07,19,07,09,14.60
2012,07,19,07,10,14.60
2012,07,19,07,11,14.70
2012,07,19,07,12,14.70
2012,07,19,07,13,14.70
2012,07,19,07,14,14.80
2012,07,19,07,15,14.80
2012,07,19,07,16,14.80
2012,07,19,07,17,14.80
2012,07,19,07,18,14.90
2012,07,19,07,19,14.90
2012,07,19,07,20,14.90
2012,07,19,07,21,15.00
2012,07,19,07,22,15.00
2012,07,19,07,23,15.10
2012,07,19,07,24,15.10
2012,07,19,07,25,15.10
2012,07,19,07,26,15.10
2012,07,19,07,27,15.10
2012,07,19,07,28,15.20
2012,07,19,07,29,15.20
2012,07,19,07,30,15.20
2012,07,19,07,31,15.20
2012,07,19,07,32,15.30
2012,07,19,07,33,15.30
2012,07,19,07,34,15.30
2012,07,19,07,35,15.40
2012,07,19,07,36,15.40
2012,07,19,07,37,15.40
2012,07,19,07,38,15.50
2012,07,19,07,39,15.50
2012,07,19,07,40,15.50
2012,07,19,07,41,15.60
2012,07,19,07,42,15.60
2012,07,19,07,43,15.60
2012,07,19,07,44,15.60
2012,07,19,07,45,15.70
2012,07,19,07,46,15.70
2012,07,19,07,47,15.70
2012,07,19,07,48,15.70
2012,07,19,07,49,15.80
2012,07,19,07,50,15.80
2012,07,19,07,51,15.80
2012,07,19,07,52,15.80
2012,07,19,07,53,15.90
2012,07,19,07,54,15.90
2012,07,19,07,55,15.90
2012,07,19,07,56,16.00
2012,07,19,07,57,16.00
2012,07,19,07,58,16.10
2012,07,19,07,59,16.10
2012,07,19,08,00,16.10
2012,07,19,08,01,16.20
2012,07,19,08,02,16.20
2012,07,19,08,03,16.30
2012,07,19,08,04,16.30
2012,07,19,08,05,16.30
2012,07,19,08,06,16.40
2012,07,19,08,07,16.40
2012,07,19,08,08,16.50
2012,07,19,08,09,16.50
2012,07,19,08,10,16.60
2012,07,19,08,11,16.60
2012,07,19,08,12,16.60
2012,07,19,08,13,16.60
2012,07,19,08,14,16.60
2012,07,19,08,15,16.70
2012,07,19,08,16,16.70
2012,07,19,08,17,16.70
2012,07,19,08,18,16.80
2012,07,19,08,19,16.80
2012,07,19,08,20,16.80
2012,07,19,08,21,16.80
2012,07,19,08,22,16.90
2012,07,19,08,23,16.90
2012,07,19,08,24,17.00
2012,07,19,08,25,17.00
2012,07,19,08,26,17.10
2012,07,19,08,27,17.10
2012,07,19,08,28,17.10
2012,07,19,08,29,17.20
2012,07,19,08,30,17.20
2012,07,19,08,31,17.30
2012,07,19,08,32,17.30
2012,07,19,08,33,17.30
2012,07,19,08,34,17.40
2012,07,19,08,35,17.40
2012,07,19,08,36,17.40
2012,07,19,08,37,17.50
2012,07,19,08,38,17.50
2012,07,19,08,39,17.60
2012,07,19,08,40,17.60
2012,07,19,08,41,17.70
2012,07,19,08,42,17.70
2012,07,19,08,43,17.70
2012,07,19,08,44,17.80
2012,07,19,08,45,17.80
2012,07,19,08,46,17.80
2012,07,19,08,47,17.90
2012,07,19,08,48,17.90
2012,07,19,08,49,18.00
2012,07,19,08,50,18.00
2012,07,19,08,51,18.10
2012,07,19,08,52,18.20
2012,07,19,08,53,18.20
2012,07,19,08,54,18.30
2012,07,19,08,55,18.30
2012,07,19,08,56,18.40
2012,07,19,08,57,18.50
2012,07,19,08,58,18.60
2012,07,19,08,59,18.70
2012,07,19,09,00,18.90
2012,07,19,09,01,18.90
2012,07,19,09,02,18.90
2012,07,19,09,03,19.00
2012,07,19,09,04,19.00
2012,07,19,09,05,19.10
2012,07,19,09,06,19.20
2012,07,19,09,07,19.20
2012,07,19,09,08,19.30
2012,07,19,09,09,19.40
2012,07,19,09,10,19.50
2012,07,19,09,11,19.60
2012,07,19,09,12,19.60
2012,07,19,09,13,19.60
2012,07,19,09,14,19.60
2012,07,19,09,15,19.60
2012,07,19,09,16,19.70
2012,07,19,09,17,19.70
2012,07,19,09,18,19.80
2012,07,19,09,19,19.90
2012,07,19,09,20,20.00
2012,07,19,09,21,20.10
2012,07,19,09,22,20.20
2012,07,19,09,23,20.30
2012,07,19,09,24,20.40
2012,07,19,09,25,20.50
2012,07,19,09,26,20.60
2012,07,19,09,27,20.60
2012,07,19,09,28,20.60
2012,07,19,09,29,20.60
2012,07,19,09,30,20.60
2012,07,19,09,31,20.50
2012,07,19,09,32,20.50
2012,07,19,09,33,20.50
2012,07,19,09,34,20.50
2012,07,19,09,35,20.60
2012,07,19,09,36,20.60
2012,07,19,09,37,20.70
2012,07,19,09,38,20.70
2012,07,19,09,39,20.80
2012,07,19,09,40,20.90
2012,07,19,09,41,20.90
2012,07,19,09,42,20.90
2012,07,19,09,43,20.90
2012,07,19,09,44,21.00
2012,07,19,09,45,21.00
2012,07,19,09,46,21.10
2012,07,19,09,47,21.10
2012,07,19,09,48,21.20
2012,07,19,09,49,21.20
2012,07,19,09,50,21.20
2012,07,19,09,51,21.20
2012,07,19,09,52,21.30
2012,07,19,09,53,21.30
2012,07,19,09,54,21.40
2012,07,19,09,55,21.40
2012,07,19,09,56,21.40
2012,07,19,09,57,21.40
2012,07,19,09,58,21.40
2012,07,19,09,59,21.40
2012,07,19,10,00,21.50
2012,07,19,10,01,21.50
2012,07,19,10,02,21.60
2012,07,19,10,03,21.60
2012,07,19,10,04,21.60
2012,07,19,10,05,21.60
2012,07,19,10,06,21.60
2012,07,19,10,07,21.60
2012,07,19,10,08,21.70
2012,07,19,10,09,21.70
2012,07,19,10,10,21.80
2012,07,19,10,11,21.80
2012,07,19,10,12,21.90
2012,07,19,10,13,21.90
2012,07,19,10,14,22.00
2012,07,19,10,15,22.00
2012,07,19,10,16,22.10
2012,07,19,10,17,22.10
2012,07,19,10,18,22.10
2012,07,19,10,19,22.10
2012,07,19,10,20,22.10
2012,07,19,10,21,22.10
2012,07,19,10,22,22.00
2012,07,19,10,23,22.00
2012,07,19,10,24,22.00
2012,07,19,10,25,22.00
2012,07,19,10,26,22.00
2012,07,19,10,27,22.00
2012,07,19,10,28,22.00
2012,07,19,10,29,22.10
2012,07,19,10,30,22.20
2012,07,19,10,31,22.30
2012,07,19,10,32,22.30
2012,07,19,10,33,22.40
2012,07,19,10,34,22.50
2012,07,19,10,35,22.60
2012,07,19,10,36,22.50
2012,07,19,10,37,22.40
2012,07,19,10,38,22.40
2012,07,19,10,39,22.40
2012,07,19,10,40,22.40
2012,07,19,10,41,22.40
2012,07,19,10,42,22.40
2012,07,19,10,43,22.40
2012,07,19,10,44,22.40
2012,07,19,10,45,22.40
2012,07,19,10,46,22.40
2012,07,19,10,47,22.40
2012,07,19,10,48,22.40
2012,07,19,10,49,22.50
2012,07,19,10,50,22.50
2012,07,19,10,51,22.60
2012,07,19,10,52,22.70
2012,07,19,10,53,22.80
2012,07,19,10,54,22.80
2012,07,19,10,55,22.80
2012,07,19,10,56,22.80
2012,07,19,10,57,22.80
2012,07,19,10,58,22.70
2012,07,19,10,59,22.70
2012,07,19,11,00,22.70
2012,07,19,11,01,22.70
2012,07,19,11,02,22.60
2012,07,19,11,03,22.60
2012,07,19,11,04,22.70
2012,07,19,11,05,22.70
2012,07,19,11,06,22.60
2012,07,19,11,07,22.60
2012,07,19,11,08,22.60
2012,07,19,11,09,22.50
2012,07,19,11,10,22.40
2012,07,19,11,11,22.30
2012,07,19,11,12,22.30
2012,07,19,11,13,22.30
2012,07,19,11,14,22.30
2012,07,19,11,15,22.40
2012,07,19,11,16,22.50
2012,07,19,11,17,22.60
2012,07,19,11,18,22.70
2012,07,19,11,19,22.70
2012,07,19,11,20,22.70
2012,07,19,11,21,22.80
2012,07,19,11,22,22.80
2012,07,19,11,23,22.80
2012,07,19,11,24,22.80
2012,07,19,11,25,22.80
2012,07,19,11,26,22.80
2012,07,19,11,27,22.90
2012,07,19,11,28,22.90
2012,07,19,11,29,23.00
2012,07,19,11,30,23.00
2012,07,19,11,31,23.00
2012,07,19,11,32,23.00
2012,07,19,11,33,22.90
2012,07,19,11,34,22.90
2012,07,19,11,35,22.90
2012,07,19,11,36,22.90
2012,07,19,11,37,22.90
2012,07,19,11,38,22.90
2012,07,19,11,39,22.90
2012,07,19,11,40,22.90
2012,07,19,11,41,23.00
2012,07,19,11,42,23.00
2012,07,19,11,43,23.10
2012,07,19,11,44,23.20
2012,07,19,11,45,23.20
2012,07,19,11,46,23.20
2012,07,19,11,47,23.20
2012,07,19,11,48,23.10
2012,07,19,11,49,23.10
2012,07,19,11,50,23.10
2012,07,19,11,51,23.10
2012,07,19,11,52,23.10
2012,07,19,11,53,23.00
2012,07,19,11,54,23.00
2012,07,19,11,55,22.90
2012,07,19,11,56,22.90
2012,07,19,11,57,22.80
2012,07,19,11,58,22.80
2012,07,19,11,59,22.70
2012,07,19,12,00,22.70
2012,07,19,12,01,22.60
2012,07,19,12,02,22.70
2012,07,19,12,03,22.70
2012,07,19,12,04,22.80
2012,07,19,12,05,22.80
2012,07,19,12,06,22.90
2012,07,19,12,07,22.90
2012,07,19,12,08,22.90
2012,07,19,12,09,22.90
2012,07,19,12,10,22.90
2012,07,19,12,11,22.90
2012,07,19,12,12,22.90
2012,07,19,12,13,23.00
2012,07,19,12,14,23.10
2012,07,19,12,15,23.10
2012,07,19,12,16,23.20
2012,07,19,12,17,23.30
2012,07,19,12,18,23.40
2012,07,19,12,19,23.50
2012,07,19,12,20,23.60
2012,07,19,12,21,23.70
2012,07,19,12,22,23.80
2012,07,19,12,23,24.00
2012,07,19,12,24,24.00
2012,07,19,12,25,24.10
2012,07,19,12,26,24.00
2012,07,19,12,27,23.90
2012,07,19,12,28,23.90
2012,07,19,12,29,23.90
2012,07,19,12,30,23.90
2012,07,19,12,31,23.90
2012,07,19,12,32,23.90
2012,07,19,12,33,23.90
2012,07,19,12,34,24.00
2012,07,19,12,35,24.00
2012,07,19,12,36,24.10
2012,07,19,12,37,24.10
2012,07,19,12,38,24.10
2012,07,19,12,39,24.10
2012,07,19,12,40,24.10
2012,07,19,12,41,24.20
2012,07,19,12,42,24.20
2012,07,19,12,43,24.20
2012,07,19,12,44,24.10
2012,07,19,12,45,24.00
2012,07,19,12,46,23.90
2012,07,19,12,47,23.90
2012,07,19,12,48,23.90
2012,07,19,12,49,23.90
2012,07,19,12,50,23.80
2012,07,19,12,51,23.80
2012,07,19,12,52,23.70
2012,07,19,12,53,23.60
2012,07,19,12,54,23.40
2012,07,19,12,55,23.30
2012,07,19,12,56,23.40
2012,07,19,12,57,23.50
2012,07,19,12,58,23.60
2012,07,19,12,59,23.80
2012,07,19,13,00,23.90
2012,07,19,13,01,24.10
2012,07,19,13,02,24.10
2012,07,19,13,03,24.20
2012,07,19,13,04,24.30
2012,07,19,13,05,24.30
2012,07,19,13,06,24.30
2012,07,19,13,07,24.30
2012,07,19,13,08,24.30
2012,07,19,13,09,24.30
2012,07,19,13,10,24.30
2012,07,19,13,11,24.30
2012,07,19,13,12,24.20
2012,07,19,13,13,24.10
2012,07,19,13,14,24.10
2012,07,19,13,15,24.10
2012,07,19,13,16,24.00
2012,07,19,13,17,24.00
2012,07,19,13,18,24.00
2012,07,19,13,19,24.00
2012,07,19,13,20,24.00
2012,07,19,13,21,24.10
2012,07,19,13,22,24.10
2012,07,19,13,23,24.20
2012,07,19,13,24,24.10
2012,07,19,13,25,24.10
2012,07,19,13,26,24.10
2012,07,19,13,27,24.10
2012,07,19,13,28,24.10
2012,07,19,13,29,24.10
2012,07,19,13,30,24.20
2012,07,19,13,31,24.10
2012,07,19,13,32,24.10
2012,07,19,13,33,23.90
2012,07,19,13,34,23.80
2012,07,19,13,35,23.80
2012,07,19,13,36,23.80
2012,07,19,13,37,23.70
2012,07,19,13,38,23.70
2012,07,19,13,39,23.80
2012,07,19,13,40,23.80
2012,07,19,13,41,23.90
2012,07,19,13,42,23.90
2012,07,19,13,43,23.90
2012,07,19,13,44,23.90
2012,07,19,13,45,23.90
2012,07,19,13,46,23.80
2012,07,19,13,47,23.70
2012,07,19,13,48,23.60
2012,07,19,13,49,23.60
2012,07,19,13,50,23.70
2012,07,19,13,51,23.80
2012,07,19,13,52,23.90
2012,07,19,13,53,24.00
2012,07,19,13,54,24.10
2012,07,19,13,55,24.20
2012,07,19,13,56,24.30
2012,07,19,13,57,24.50
2012,07,19,13,58,24.60
2012,07,19,13,59,24.60
2012,07,19,14,00,24.60
2012,07,19,14,01,24.60
2012,07,19,14,02,24.70
2012,07,19,14,03,24.70
2012,07,19,14,04,24.70
2012,07,19,14,05,24.70
2012,07,19,14,06,24.80
2012,07,19,14,07,24.80
2012,07,19,14,08,24.80
2012,07,19,14,09,24.80
2012,07,19,14,10,24.80
2012,07,19,14,11,24.80
2012,07,19,14,12,24.80
2012,07,19,14,13,24.80
2012,07,19,14,14,24.80
2012,07,19,14,15,24.80
2012,07,19,14,16,24.80
2012,07,19,14,17,24.80
2012,07,19,14,18,24.80
2012,07,19,14,19,24.80
2012,07,19,14,20,24.80
2012,07,19,14,21,24.90
2012,07,19,14,22,25.10
2012,07,19,14,23,25.10
2012,07,19,14,24,25.00
2012,07,19,14,25,25.00
2012,07,19,14,26,25.00
2012,07,19,14,27,25.00
2012,07,19,14,28,24.90
2012,07,19,14,29,24.90
2012,07,19,14,30,24.80
2012,07,19,14,31,24.80
2012,07,19,14,32,24.80
2012,07,19,14,33,24.80
2012,07,19,14,34,24.80
2012,07,19,14,35,24.80
2012,07,19,14,36,24.90
2012,07,19,14,37,25.00
2012,07,19,14,38,25.10
2012,07,19,14,39,25.10
2012,07,19,14,40,25.20
2012,07,19,14,41,25.20
2012,07,19,14,42,25.10
2012,07,19,14,43,24.90
2012,07,19,14,44,24.80
2012,07,19,14,45,24.70
2012,07,19,14,46,24.70
2012,07,19,14,47,24.80
2012,07,19,14,48,24.80
2012,07,19,14,49,24.80
2012,07,19,14,50,24.90
2012,07,19,14,51,25.00
2012,07,19,14,52,25.10
2012,07,19,14,53,25.20
2012,07,19,14,54,25.20
2012,07,19,14,55,25.20
2012,07,19,14,56,25.20
2012,07,19,14,57,25.20
2012,07,19,14,58,25.20
2012,07,19,14,59,25.20
2012,07,19,15,00,25.20
2012,07,19,15,01,25.30
2012,07,19,15,02,25.30
2012,07,19,15,03,25.30
2012,07,19,15,04,25.20
2012,07,19,15,05,25.10
2012,07,19,15,06,25.00
2012,07,19,15,07,24.90
2012,07,19,15,08,24.90
2012,07,19,15,09,25.00
2012,07,19,15,10,25.00
2012,07,19,15,11,25.10
2012,07,19,15,12,25.10
2012,07,19,15,13,25.20
2012,07,19,15,14,25.20
2012,07,19,15,15,25.20
2012,07,19,15,16,25.30
2012,07,19,15,17,25.30
2012,07,19,15,18,25.40
2012,07,19,15,19,25.40
2012,07,19,15,20,25.50
2012,07,19,15,21,25.50
2012,07,19,15,22,25.50
2012,07,19,15,23,25.50
2012,07,19,15,24,25.50
2012,07,19,15,25,25.50
2012,07,19,15,26,25.40
2012,07,19,15,27,25.40
2012,07,19,15,28,25.30
2012,07,19,15,29,25.20
2012,07,19,15,30,25.20
2012,07,19,15,31,25.20
2012,07,19,15,32,25.20
2012,07,19,15,33,25.20
2012,07,19,15,34,25.20
2012,07,19,15,35,25.20
2012,07,19,15,36,25.30
2012,07,19,15,37,25.30
2012,07,19,15,38,25.30
2012,07,19,15,39,25.30
2012,07,19,15,40,25.30
2012,07,19,15,41,25.30
2012,07,19,15,42,25.30
2012,07,19,15,43,25.30
2012,07,19,15,44,25.40
2012,07,19,15,45,25.50
2012,07,19,15,46,25.40
2012,07,19,15,47,25.50
2012,07,19,15,48,25.50
2012,07,19,15,49,25.60
2012,07,19,15,50,25.60
2012,07,19,15,51,25.60
2012,07,19,15,52,25.60
2012,07,19,15,53,25.60
2012,07,19,15,54,25.60
2012,07,19,15,55,25.50
2012,07,19,15,56,25.50
2012,07,19,15,57,25.40
2012,07,19,15,58,25.30
2012,07,19,15,59,25.30
2012,07,19,16,00,25.20
2012,07,19,16,01,25.20
2012,07,19,16,02,25.30
2012,07,19,16,03,25.30
2012,07,19,16,04,25.30
2012,07,19,16,05,25.20
2012,07,19,16,06,25.10
2012,07,19,16,07,24.90
2012,07,19,16,08,24.80
2012,07,19,16,09,24.70
2012,07,19,16,10,24.70
2012,07,19,16,11,24.70
2012,07,19,16,12,24.80
2012,07,19,16,13,24.90
2012,07,19,16,14,25.00
2012,07,19,16,15,25.10
2012,07,19,16,16,25.20
2012,07,19,16,17,25.30
2012,07,19,16,18,25.40
2012,07,19,16,19,25.50
2012,07,19,16,20,25.60
2012,07,19,16,21,25.70
2012,07,19,16,22,25.70
2012,07,19,16,23,25.70
2012,07,19,16,24,25.80
2012,07,19,16,25,25.80
2012,07,19,16,26,25.80
2012,07,19,16,27,25.90
2012,07,19,16,28,25.90
2012,07,19,16,29,26.00
2012,07,19,16,30,26.00
2012,07,19,16,31,26.10
2012,07,19,16,32,26.10
2012,07,19,16,33,26.20
2012,07,19,16,34,26.20
2012,07,19,16,35,26.20
2012,07,19,16,36,26.10
2012,07,19,16,37,26.10
2012,07,19,16,38,26.00
2012,07,19,16,39,26.00
2012,07,19,16,40,26.00
2012,07,19,16,41,26.00
2012,07,19,16,42,26.00
2012,07,19,16,43,26.00
2012,07,19,16,44,26.10
2012,07,19,16,45,26.10
2012,07,19,16,46,26.10
2012,07,19,16,47,26.00
2012,07,19,16,48,26.00
2012,07,19,16,49,26.10
2012,07,19,16,50,26.10
2012,07,19,16,51,26.00
2012,07,19,16,52,26.00
2012,07,19,16,53,25.80
2012,07,19,16,54,25.70
2012,07,19,16,55,25.60
2012,07,19,16,56,25.50
2012,07,19,16,57,25.40
2012,07,19,16,58,25.40
2012,07,19,16,59,25.40
2012,07,19,17,00,25.40
2012,07,19,17,01,25.50
2012,07,19,17,02,25.50
2012,07,19,17,03,25.50
2012,07,19,17,04,25.50
2012,07,19,17,05,25.50
2012,07,19,17,06,25.40
2012,07,19,17,07,25.30
2012,07,19,17,08,25.30
2012,07,19,17,09,25.30
2012,07,19,17,10,25.30
2012,07,19,17,11,25.30
2012,07,19,17,12,25.30
2012,07,19,17,13,25.20
2012,07,19,17,14,25.10
2012,07,19,17,15,25.10
2012,07,19,17,16,25.00
2012,07,19,17,17,24.80
2012,07,19,17,18,24.70
2012,07,19,17,19,24.70